Time,TemperatureF,DewpointF,PressureIn,WindDirection,WindDirectionDegrees,WindSpeedMPH,WindSpeedGustMPH,Humidity,HourlyPrecipIn,Conditions,Clouds,dailyrainin,SoftwareType,DateUTC
2013-03-17 00:03:00,69.0,-99.9,30.01,North,349,4.0,6.0,-999,-99.99,,,-99.99,,2013-03-17 10:03:00,
2013-03-17 00:13:00,68.0,-99.9,30.02,NNW,332,4.0,5.0,-999,-99.99,,,-99.99,,2013-03-17 10:13:00,
2013-03-17 00:23:00,68.0,-99.9,30.02,NNW,327,3.0,4.0,-999,-99.99,,,-99.99,,2013-03-17 10:23:00,
2013-03-17 00:33:00,68.0,-99.9,30.01,NNW,347,4.0,5.0,-999,-99.99,,,-99.99,,2013-03-17 10:33:00,
2013-03-17 00:42:00,68.0,-99.9,30.02,NNW,341,3.0,6.0,-999,-99.99,,,-99.99,,2013-03-17 10:42:00,
2013-03-17 00:53:00,68.0,-99.9,30.01,NNW,327,4.0,5.0,-999,-99.99,,,-99.99,,2013-03-17 10:53:00,
2013-03-17 01:03:00,68.0,-99.9,30.01,NW,323,3.0,4.0,-999,-99.99,,,-99.99,,2013-03-17 11:03:00,
2013-03-17 01:12:00,68.0,-99.9,30.01,NW,322,2.0,4.0,-999,-99.99,,,-99.99,,2013-03-17 11:12:00,
2013-03-17 01:22:00,68.0,-99.9,30.01,North,5,2.0,4.0,-999,-99.99,,,-99.99,,2013-03-17 11:22:00,
2013-03-17 01:32:00,68.0,-99.9,30.01,NW,317,2.0,3.0,-999,-99.99,,,-99.99,,2013-03-17 11:32:00,
2013-03-17 01:43:00,68.0,-99.9,30.01,NNW,338,1.0,2.0,-999,-99.99,,,-99.99,,2013-03-17 11:43:00,
2013-03-17 01:52:00,68.0,-99.9,30.01,NW,313,4.0,4.0,-999,-99.99,,,-99.99,,2013-03-17 11:52:00,
2013-03-17 02:02:00,68.0,-99.9,30.01,North,360,3.0,3.0,-999,-99.99,,,-99.99,,2013-03-17 12:02:00,
2013-03-17 02:12:00,67.0,-99.9,30.01,NNW,333,3.0,4.0,-999,-99.99,,,-99.99,,2013-03-17 12:12:00,
2013-03-17 02:22:00,67.0,-99.9,30.00,North,358,2.0,3.0,-999,-99.99,,,-99.99,,2013-03-17 12:22:00,
2013-03-17 02:33:00,67.0,-99.9,30.00,North,349,2.0,3.0,-999,-99.99,,,-99.99,,2013-03-17 12:33:00,
2013-03-17 02:43:00,67.0,-99.9,29.99,NNW,331,2.0,4.0,-999,-99.99,,,-99.99,,2013-03-17 12:43:00,
2013-03-17 02:52:00,67.0,-99.9,29.99,NNW,347,2.0,3.0,-999,-99.99,,,-99.99,,2013-03-17 12:52:00,
2013-03-17 03:02:00,66.0,-99.9,29.99,NNW,344,2.0,3.0,-999,-99.99,,,-99.99,,2013-03-17 13:02:00,
2013-03-17 03:13:00,67.0,-99.9,29.99,WNW,295,1.0,2.0,-999,-99.99,,,-99.99,,2013-03-17 13:13:00,
2013-03-17 03:22:00,67.0,-99.9,29.99,WNW,294,2.0,3.0,-999,-99.99,,,-99.99,,2013-03-17 13:22:00,
2013-03-17 03:33:00,66.0,-99.9,29.99,NW,322,4.0,4.0,-999,-99.99,,,-99.99,,2013-03-17 13:33:00,
2013-03-17 03:43:00,66.0,-99.9,30.00,NW,315,4.0,5.0,-999,-99.99,,,-99.99,,2013-03-17 13:43:00,
2013-03-17 03:53:00,66.0,-99.9,30.00,NNW,331,4.0,5.0,-999,-99.99,,,-99.99,,2013-03-17 13:53:00,
2013-03-17 04:02:00,65.0,-99.9,29.99,NNW,328,2.0,4.0,-999,-99.99,,,-99.99,,2013-03-17 14:02:00,
2013-03-17 04:12:00,65.0,-99.9,29.99,NW,321,4.0,5.0,-999,-99.99,,,-99.99,,2013-03-17 14:12:00,
2013-03-17 04:22:00,65.0,-99.9,29.99,North,357,3.0,4.0,-999,-99.99,,,-99.99,,2013-03-17 14:22:00,
2013-03-17 04:33:00,65.0,-99.9,29.98,ENE,70,-999.0,1.0,-999,-99.99,,,-99.99,,2013-03-17 14:33:00,
2013-03-17 04:43:00,66.0,-99.9,29.98,West,272,2.0,2.0,-999,-99.99,,,-99.99,,2013-03-17 14:43:00,
2013-03-17 04:53:00,65.0,-99.9,29.98,NNW,336,2.0,3.0,-999,-99.99,,,-99.99,,2013-03-17 14:53:00,
2013-03-17 05:02:00,65.0,-99.9,29.98,ENE,67,-999.0,2.0,-999,-99.99,,,-99.99,,2013-03-17 15:02:00,
2013-03-17 05:12:00,66.0,-99.9,29.98,North,7,-999.0,2.0,-999,-99.99,,,-99.99,,2013-03-17 15:12:00,
2013-03-17 05:23:00,66.0,-99.9,29.98,NW,317,2.0,3.0,-999,-99.99,,,-99.99,,2013-03-17 15:23:00,
2013-03-17 05:33:00,65.0,-99.9,29.98,North,9,0.0,1.0,-999,-99.99,,,-99.99,,2013-03-17 15:33:00,
2013-03-17 05:43:00,65.0,-99.9,29.98,NNE,21,1.0,2.0,-999,-99.99,,,-99.99,,2013-03-17 15:43:00,
2013-03-17 05:53:00,66.0,-99.9,29.98,North,10,0.0,2.0,-999,-99.99,,,-99.99,,2013-03-17 15:53:00,
2013-03-17 06:03:00,65.0,-99.9,29.98,NNW,340,3.0,10.0,-999,-99.99,,,-99.99,,2013-03-17 16:03:00,
2013-03-17 06:13:00,64.0,-99.9,29.99,NNW,343,3.0,6.0,-999,-99.99,,,-99.99,,2013-03-17 16:13:00,
2013-03-17 06:23:00,64.0,-99.9,29.99,North,5,3.0,5.0,-999,-99.99,,,-99.99,,2013-03-17 16:23:00,
2013-03-17 06:34:00,65.0,-99.9,29.99,North,8,4.0,6.0,-999,-99.99,,,-99.99,,2013-03-17 16:34:00,
2013-03-17 06:43:00,65.0,-99.9,30.00,NE,54,2.0,4.0,-999,-99.99,,,-99.99,,2013-03-17 16:43:00,
2013-03-17 06:53:00,65.0,-99.9,30.00,NE,39,1.0,4.0,-999,-99.99,,,-99.99,,2013-03-17 16:53:00,
2013-03-17 07:03:00,65.0,-99.9,30.00,NNW,342,4.0,6.0,-999,-99.99,,,-99.99,,2013-03-17 17:03:00,
2013-03-17 07:12:00,65.0,-99.9,30.00,North,1,4.0,6.0,-999,-99.99,,,-99.99,,2013-03-17 17:12:00,
2013-03-17 07:22:00,66.0,-99.9,30.01,NNW,337,3.0,6.0,-999,-99.99,,,-99.99,,2013-03-17 17:22:00,
2013-03-17 07:33:00,66.0,-99.9,30.01,NW,323,4.0,6.0,-999,-99.99,,,-99.99,,2013-03-17 17:33:00,
2013-03-17 07:42:00,66.0,-99.9,30.01,NNE,23,3.0,7.0,-999,-99.99,,,-99.99,,2013-03-17 17:42:00,
2013-03-17 07:53:00,66.0,-99.9,30.01,North,352,3.0,5.0,-999,-99.99,,,-99.99,,2013-03-17 17:53:00,
2013-03-17 08:02:00,67.0,-99.9,30.01,NNW,333,0.0,3.0,-999,-99.99,,,-99.99,,2013-03-17 18:02:00,
2013-03-17 08:13:00,67.0,-99.9,30.01,West,272,1.0,3.0,-999,-99.99,,,-99.99,,2013-03-17 18:13:00,
2013-03-17 08:22:00,68.0,-99.9,30.02,NW,318,4.0,7.0,-999,-99.99,,,-99.99,,2013-03-17 18:22:00,
2013-03-17 08:32:00,68.0,-99.9,30.03,NNW,340,3.0,5.0,-999,-99.99,,,-99.99,,2013-03-17 18:32:00,
2013-03-17 08:42:00,69.0,-99.9,30.03,North,1,5.0,8.0,-999,-99.99,,,-99.99,,2013-03-17 18:42:00,
2013-03-17 08:52:00,69.0,-99.9,30.03,NNW,347,4.0,9.0,-999,-99.99,,,-99.99,,2013-03-17 18:52:00,
2013-03-17 09:02:00,70.0,-99.9,30.04,NE,39,3.0,8.0,-999,-99.99,,,-99.99,,2013-03-17 19:02:00,
2013-03-17 09:12:00,71.0,-99.9,30.04,ENE,69,4.0,9.0,-999,-99.99,,,-99.99,,2013-03-17 19:12:00,
2013-03-17 09:23:00,70.0,-99.9,30.04,North,11,3.0,9.0,-999,-99.99,,,-99.99,,2013-03-17 19:23:00,
2013-03-17 09:33:00,71.0,-99.9,30.04,North,11,4.0,8.0,-999,-99.99,,,-99.99,,2013-03-17 19:33:00,
2013-03-17 09:42:00,71.0,-99.9,30.04,ENE,68,7.0,10.0,-999,-99.99,,,-99.99,,2013-03-17 19:42:00,
2013-03-17 09:53:00,71.0,-99.9,30.04,NE,41,3.0,7.0,-999,-99.99,,,-99.99,,2013-03-17 19:53:00,
2013-03-17 10:02:00,71.0,-99.9,30.04,North,11,2.0,6.0,-999,-99.99,,,-99.99,,2013-03-17 20:02:00,
2013-03-17 10:12:00,71.0,-99.9,30.04,NW,312,3.0,7.0,-999,-99.99,,,-99.99,,2013-03-17 20:12:00,
2013-03-17 10:23:00,71.0,-99.9,30.05,NNW,340,4.0,8.0,-999,-99.99,,,-99.99,,2013-03-17 20:23:00,
2013-03-17 10:33:00,72.0,-99.9,30.05,ENE,65,5.0,9.0,-999,-99.99,,,-99.99,,2013-03-17 20:33:00,
2013-03-17 10:43:00,72.0,-99.9,30.05,NE,46,5.0,7.0,-999,-99.99,,,-99.99,,2013-03-17 20:43:00,
2013-03-17 10:52:00,73.0,-99.9,30.05,ENE,62,4.0,8.0,-999,-99.99,,,-99.99,,2013-03-17 20:52:00,
2013-03-17 11:03:00,72.0,-99.9,30.04,NNW,327,7.0,9.0,-999,-99.99,,,-99.99,,2013-03-17 21:03:00,
2013-03-17 11:12:00,73.0,-99.9,30.04,NNE,14,2.0,5.0,-999,-99.99,,,-99.99,,2013-03-17 21:12:00,
2013-03-17 11:23:00,72.0,-99.9,30.03,West,277,3.0,6.0,-999,-99.99,,,-99.99,,2013-03-17 21:23:00,
2013-03-17 11:33:00,75.0,-99.9,30.03,East,99,4.0,8.0,-999,-99.99,,,-99.99,,2013-03-17 21:33:00,
2013-03-17 11:43:00,74.0,-99.9,30.03,WSW,256,1.0,5.0,-999,-99.99,,,-99.99,,2013-03-17 21:43:00,
2013-03-17 11:53:00,72.0,-99.9,30.03,WSW,238,7.0,8.0,-999,-99.99,,,-99.99,,2013-03-17 21:53:00,
2013-03-17 12:03:00,71.0,-99.9,30.03,SW,230,11.0,12.0,-999,-99.99,,,-99.99,,2013-03-17 22:03:00,
2013-03-17 12:13:00,71.0,-99.9,30.03,SW,235,12.0,14.0,-999,-99.99,,,-99.99,,2013-03-17 22:13:00,
2013-03-17 12:23:00,71.0,-99.9,30.02,SW,228,9.0,13.0,-999,-99.99,,,-99.99,,2013-03-17 22:23:00,
2013-03-17 12:33:00,71.0,-99.9,30.01,SW,221,7.0,10.0,-999,-99.99,,,-99.99,,2013-03-17 22:33:00,
2013-03-17 12:42:00,72.0,-99.9,30.01,SW,221,7.0,9.0,-999,-99.99,,,-99.99,,2013-03-17 22:42:00,
2013-03-17 12:53:00,72.0,-99.9,30.01,SW,232,8.0,11.0,-999,-99.99,,,-99.99,,2013-03-17 22:53:00,
2013-03-17 13:03:00,72.0,-99.9,30.01,SW,225,10.0,12.0,-999,-99.99,,,-99.99,,2013-03-17 23:03:00,
2013-03-17 13:13:00,72.0,-99.9,30.01,SSW,213,11.0,14.0,-999,-99.99,,,-99.99,,2013-03-17 23:13:00,
2013-03-17 13:23:00,72.0,-99.9,30.00,SW,220,9.0,13.0,-999,-99.99,,,-99.99,,2013-03-17 23:23:00,
2013-03-17 13:33:00,72.0,-99.9,30.01,SW,220,9.0,14.0,-999,-99.99,,,-99.99,,2013-03-17 23:33:00,
2013-03-17 13:43:00,72.0,-99.9,30.00,SW,221,9.0,13.0,-999,-99.99,,,-99.99,,2013-03-17 23:43:00,
2013-03-17 13:53:00,71.0,-99.9,30.00,SW,232,11.0,15.0,-999,-99.99,,,-99.99,,2013-03-17 23:53:00,
2013-03-17 14:03:00,72.0,-99.9,29.99,WSW,242,8.0,12.0,-999,-99.99,,,-99.99,,2013-03-18 00:03:00,
2013-03-17 14:13:00,72.0,-99.9,29.98,SW,227,7.0,12.0,-999,-99.99,,,-99.99,,2013-03-18 00:13:00,
2013-03-17 14:22:00,71.0,-99.9,29.98,WSW,238,9.0,11.0,-999,-99.99,,,-99.99,,2013-03-18 00:22:00,
2013-03-17 14:33:00,71.0,-99.9,29.98,WSW,239,8.0,11.0,-999,-99.99,,,-99.99,,2013-03-18 00:33:00,
2013-03-17 14:42:00,71.0,-99.9,29.98,SW,236,9.0,11.0,-999,-99.99,,,-99.99,,2013-03-18 00:42:00,
2013-03-17 14:53:00,71.0,-99.9,29.97,WSW,240,10.0,12.0,-999,-99.99,,,-99.99,,2013-03-18 00:53:00,
2013-03-17 15:02:00,71.0,-99.9,29.96,SW,236,11.0,13.0,-999,-99.99,,,-99.99,,2013-03-18 01:02:00,
2013-03-17 15:12:00,71.0,-99.9,29.96,WSW,237,10.0,12.0,-999,-99.99,,,-99.99,,2013-03-18 01:12:00,
2013-03-17 15:22:00,71.0,-99.9,29.96,WSW,237,9.0,13.0,-999,-99.99,,,-99.99,,2013-03-18 01:22:00,
2013-03-17 15:33:00,71.0,-99.9,29.96,SW,234,9.0,13.0,-999,-99.99,,,-99.99,,2013-03-18 01:33:00,
2013-03-17 15:42:00,71.0,-99.9,29.95,SW,235,11.0,13.0,-999,-99.99,,,-99.99,,2013-03-18 01:42:00,
2013-03-17 15:52:00,71.0,-99.9,29.95,SW,232,9.0,11.0,-999,-99.99,,,-99.99,,2013-03-18 01:52:00,
2013-03-17 16:02:00,71.0,-99.9,29.95,SW,230,7.0,12.0,-999,-99.99,,,-99.99,,2013-03-18 02:02:00,
2013-03-17 16:12:00,72.0,-99.9,29.95,SW,233,7.0,10.0,-999,-99.99,,,-99.99,,2013-03-18 02:12:00,
2013-03-17 16:22:00,72.0,-99.9,29.95,SSW,197,6.0,9.0,-999,-99.99,,,-99.99,,2013-03-18 02:22:00,
2013-03-17 16:32:00,73.0,-99.9,29.95,SSW,210,7.0,9.0,-999,-99.99,,,-99.99,,2013-03-18 02:32:00,
2013-03-17 16:42:00,73.0,-99.9,29.96,SSW,212,7.0,10.0,-999,-99.99,,,-99.99,,2013-03-18 02:42:00,
2013-03-17 16:52:00,72.0,-99.9,29.96,SW,220,9.0,14.0,-999,-99.99,,,-99.99,,2013-03-18 02:52:00,
2013-03-17 17:03:00,73.0,-99.9,29.96,SSW,205,8.0,11.0,-999,-99.99,,,-99.99,,2013-03-18 03:03:00,
2013-03-17 17:12:00,72.0,-99.9,29.97,SSW,205,8.0,13.0,-999,-99.99,,,-99.99,,2013-03-18 03:12:00,
2013-03-17 17:22:00,72.0,-99.9,29.97,SW,226,6.0,11.0,-999,-99.99,,,-99.99,,2013-03-18 03:22:00,
2013-03-17 17:33:00,72.0,-99.9,29.96,SSW,206,7.0,10.0,-999,-99.99,,,-99.99,,2013-03-18 03:33:00,
2013-03-17 17:42:00,73.0,-99.9,29.96,SSW,201,6.0,10.0,-999,-99.99,,,-99.99,,2013-03-18 03:42:00,
2013-03-17 17:53:00,73.0,-99.9,29.97,SSW,209,6.0,9.0,-999,-99.99,,,-99.99,,2013-03-18 03:53:00,
2013-03-17 18:03:00,72.0,-99.9,29.97,SW,218,5.0,8.0,-999,-99.99,,,-99.99,,2013-03-18 04:03:00,
2013-03-17 18:13:00,72.0,-99.9,29.98,SSW,203,4.0,6.0,-999,-99.99,,,-99.99,,2013-03-18 04:13:00,
2013-03-17 18:23:00,72.0,-99.9,29.98,SSW,203,4.0,7.0,-999,-99.99,,,-99.99,,2013-03-18 04:23:00,
2013-03-17 18:33:00,72.0,-99.9,29.98,South,175,4.0,6.0,-999,-99.99,,,-99.99,,2013-03-18 04:33:00,
2013-03-17 18:42:00,72.0,-99.9,29.98,SSW,203,2.0,8.0,-999,-99.99,,,-99.99,,2013-03-18 04:42:00,
2013-03-17 18:53:00,72.0,-99.9,29.99,SSW,213,4.0,7.0,-999,-99.99,,,-99.99,,2013-03-18 04:53:00,
2013-03-17 19:03:00,71.0,-99.9,30.00,WNW,294,1.0,7.0,-999,-99.99,,,-99.99,,2013-03-18 05:03:00,
2013-03-17 19:12:00,71.0,-99.9,30.01,ENE,65,3.0,7.0,-999,-99.99,,,-99.99,,2013-03-18 05:12:00,
2013-03-17 19:23:00,71.0,-99.9,30.01,ENE,72,5.0,8.0,-999,-99.99,,,-99.99,,2013-03-18 05:23:00,
2013-03-17 19:32:00,70.0,-99.9,30.01,NE,56,5.0,11.0,-999,-99.99,,,-99.99,,2013-03-18 05:32:00,
2013-03-17 19:43:00,70.0,-99.9,30.01,ENE,62,4.0,8.0,-999,-99.99,,,-99.99,,2013-03-18 05:43:00,
2013-03-17 19:52:00,70.0,-99.9,30.01,NE,49,5.0,9.0,-999,-99.99,,,-99.99,,2013-03-18 05:52:00,
2013-03-17 20:02:00,69.0,-99.9,30.02,ENE,58,5.0,7.0,-999,-99.99,,,-99.99,,2013-03-18 06:02:00,
2013-03-17 20:12:00,69.0,-99.9,30.02,ENE,64,5.0,9.0,-999,-99.99,,,-99.99,,2013-03-18 06:12:00,
2013-03-17 20:22:00,69.0,-99.9,30.02,NE,55,5.0,10.0,-999,-99.99,,,-99.99,,2013-03-18 06:22:00,
2013-03-17 20:32:00,69.0,-99.9,30.03,NW,326,6.0,8.0,-999,-99.99,,,-99.99,,2013-03-18 06:32:00,
2013-03-17 20:42:00,69.0,-99.9,30.03,NNW,328,8.0,12.0,-999,-99.99,,,-99.99,,2013-03-18 06:42:00,
2013-03-17 20:53:00,69.0,-99.9,30.03,NNW,341,6.0,11.0,-999,-99.99,,,-99.99,,2013-03-18 06:53:00,
2013-03-17 21:02:00,68.0,-99.9,30.04,NNW,342,7.0,11.0,-999,-99.99,,,-99.99,,2013-03-18 07:02:00,
2013-03-17 21:13:00,68.0,-99.9,30.04,NNW,336,7.0,12.0,-999,-99.99,,,-99.99,,2013-03-18 07:13:00,
2013-03-17 21:23:00,68.0,-99.9,30.04,NNW,340,6.0,9.0,-999,-99.99,,,-99.99,,2013-03-18 07:23:00,
2013-03-17 21:33:00,68.0,-99.9,30.04,NE,50,1.0,4.0,-999,-99.99,,,-99.99,,2013-03-18 07:33:00,
2013-03-17 21:43:00,68.0,-99.9,30.04,ENE,74,6.0,11.0,-999,-99.99,,,-99.99,,2013-03-18 07:43:00,
2013-03-17 21:53:00,68.0,-99.9,30.04,ENE,66,7.0,9.0,-999,-99.99,,,-99.99,,2013-03-18 07:53:00,
2013-03-17 22:02:00,68.0,-99.9,30.05,ENE,69,4.0,8.0,-999,-99.99,,,-99.99,,2013-03-18 08:02:00,
2013-03-17 22:12:00,68.0,-99.9,30.05,ENE,63,6.0,10.0,-999,-99.99,,,-99.99,,2013-03-18 08:12:00,
2013-03-17 22:22:00,68.0,-99.9,30.05,ENE,57,6.0,12.0,-999,-99.99,,,-99.99,,2013-03-18 08:22:00,
2013-03-17 22:32:00,68.0,-99.9,30.06,ENE,73,5.0,9.0,-999,-99.99,,,-99.99,,2013-03-18 08:32:00,
2013-03-17 22:43:00,68.0,-99.9,30.06,ENE,68,7.0,9.0,-999,-99.99,,,-99.99,,2013-03-18 08:43:00,
2013-03-17 22:53:00,69.0,-99.9,30.06,ENE,57,5.0,9.0,-999,-99.99,,,-99.99,,2013-03-18 08:53:00,
2013-03-17 23:02:00,69.0,-99.9,30.06,ENE,62,6.0,10.0,-999,-99.99,,,-99.99,,2013-03-18 09:02:00,
2013-03-17 23:13:00,69.0,-99.9,30.06,ENE,62,6.0,10.0,-999,-99.99,,,-99.99,,2013-03-18 09:13:00,
2013-03-17 23:22:00,69.0,-99.9,30.06,NE,49,5.0,9.0,-999,-99.99,,,-99.99,,2013-03-18 09:22:00,
2013-03-17 23:33:00,69.0,-99.9,30.06,ENE,61,5.0,10.0,-999,-99.99,,,-99.99,,2013-03-18 09:33:00,
2013-03-17 23:43:00,69.0,-99.9,30.06,ENE,69,3.0,10.0,-999,-99.99,,,-99.99,,2013-03-18 09:43:00,
2013-03-17 23:53:00,69.0,-99.9,30.06,ENE,75,3.0,10.0,-999,-99.99,,,-99.99,,2013-03-18 09:53:00,